PDT,Max TemperatureF,Mean TemperatureF,Min TemperatureF,Max Dew PointF,MeanDew PointF,Min DewpointF,Max Humidity, Mean Humidity, Min Humidity, Max Sea Level PressureIn, Mean Sea Level PressureIn, Min Sea Level PressureIn, Max VisibilityMiles, Mean VisibilityMiles, Min VisibilityMiles, Max Wind SpeedMPH, Mean Wind SpeedMPH, Max Gust SpeedMPH,PrecipitationIn, CloudCover, Events, WindDirDegrees
2012-7-1,85,70,54,53,48,39,83,52,20,29.93,29.89,29.85,10,10,10,17,5,82,0.00,2,,281
2012-7-2,86,68,50,48,44,39,77,48,19,29.92,29.82,29.71,10,10,10,16,6,21,T,0,Rain,250
2012-7-3,73,62,51,45,39,34,62,44,26,30.07,29.93,29.76,10,10,10,25,11,35,0.00,2,,278
2012-7-4,80,60,40,43,38,31,76,47,18,30.06,29.98,29.88,10,10,10,8,3,13,0.00,1,,276
2012-7-5,87,66,45,47,42,37,77,47,17,29.96,29.93,29.88,10,10,10,12,5,16,0.00,1,,234
2012-7-6,94,73,51,54,45,35,77,46,15,30.03,29.98,29.93,10,10,10,13,5,17,0.00,1,,245
2012-7-7,100,79,58,53,49,44,67,42,16,30.05,29.98,29.90,10,10,10,13,5,15,0.00,1,,253
2012-7-8,104,83,62,55,51,47,65,40,15,30.00,29.93,29.82,10,10,10,35,6,43,0.00,0,,257
2012-7-9,102,83,64,63,51,42,68,43,17,29.98,29.89,29.81,10,10,10,22,7,29,0.00,2,,309
2012-7-10,100,88,75,51,43,38,43,28,12,29.99,29.93,29.85,10,10,10,47,7,67,0.00,0,,341
2012-7-11,100,82,63,55,45,37,52,32,12,29.96,29.89,29.81,10,10,10,15,5,17,0.00,0,,295
2012-7-12,97,79,61,56,51,44,72,45,17,29.87,29.82,29.75,10,10,10,13,5,29,T,1,Rain-Thunderstorm,291
2012-7-13,96,82,68,55,51,47,53,37,20,29.89,29.83,29.77,10,10,10,16,7,26,0.00,2,,344
2012-7-14,90,79,68,63,56,49,76,50,24,29.91,29.84,29.80,10,10,10,28,5,64,0.01,4,Rain-Thunderstorm,290
2012-7-15,89,74,59,60,47,31,84,49,13,29.82,29.76,29.71,10,10,4,22,7,31,0.00,1,,301
2012-7-16,87,72,56,56,51,44,72,52,31,29.87,29.80,29.73,10,10,10,16,6,21,0.03,3,,275
2012-7-17,94,78,61,60,56,51,84,57,30,29.82,29.77,29.72,10,10,9,18,6,22,T,2,Rain-Thunderstorm,273
2012-7-18,96,79,62,58,55,52,78,51,24,29.87,29.83,29.78,10,10,10,14,5,18,0.00,1,,325
2012-7-19,95,80,65,62,55,52,64,45,26,29.96,29.88,29.82,10,10,10,10,5,15,0.00,1,,284
2012-7-20,85,73,60,57,53,48,66,51,35,30.13,29.96,29.83,10,10,10,22,9,29,0.00,3,,303
2012-7-21,88,69,50,52,49,46,83,54,25,30.17,30.07,29.96,10,10,10,22,5,28,0.00,1,,250
2012-7-22,89,72,55,52,45,37,77,49,20,30.00,29.93,29.82,10,10,10,28,11,35,0.00,0,,264
2012-7-23,82,65,48,45,40,36,66,45,23,30.15,30.09,30.02,10,10,10,17,5,23,0.00,0,,270
2012-7-24,88,69,49,52,47,44,77,50,22,30.05,29.98,29.88,10,10,10,9,5,16,0.00,0,,246
2012-7-25,93,74,54,52,48,45,72,47,21,29.97,29.92,29.84,10,10,10,12,7,67,0.00,0,,230
2012-7-26,97,88,72,56,50,45,57,39,20,29.94,29.85,29.78,10,10,10,13,7,,0.00,1,,265
2012-7-27,94,75,56,56,48,42,77,48,18,29.95,29.86,29.81,10,10,10,22,8,26,0.00,0,,311
2012-7-28,90,70,49,52,43,32,68,41,14,30.04,29.99,29.94,10,10,10,12,4,16,0.00,0,,284
2012-7-29,93,75,56,49,45,32,72,42,12,30.06,29.98,29.89,10,10,10,15,5,20,0.00,0,,307
2012-7-30,93,79,64,49,46,42,49,34,18,29.99,29.95,29.90,10,10,9,20,9,29,0.00,0,,315
2012-7-31,91,70,49,46,40,32,74,44,13,30.05,30.00,29.94,10,10,10,12,6,16,0.00,0,,308